Weather History for Marshall, MN

Change the Weather History Date:

Saturday, February 2, 2013

  Actual Average Record
Temperature  
Mean Temperature 16 °F -  
Max Temperature 30 °F 22 °F 59 °F (1991)
Min Temperature 3 °F 1 °F -20 °F (1978)
Degree Days  
Heating Degree Days 48    
Moisture  
Dew Point 8 °F    
Average Humidity 77    
Maximum Humidity 93    
Minimum Humidity 62    
Precipitation  
Precipitation 0.00 in - - ()
Sea Level Pressure  
Sea Level Pressure 30.04 in    
Wind  
Wind Speed 12 mph (NW)    
Max Wind Speed 26 mph    
Max Gust Speed 36 mph    
Visibility 8 miles    
Events      
Averages and records for this station are not official NWS values.
T = Trace of Precipitation, MM = Missing Value Source: NWS Daily Summary

Daily Weather History Graph

Daily Weather History Graph

Search for Another Location

Airport:

Trip Planner

Search our weather history database for the weather conditions in past years. The results will help you decide how hot, cold, wet, or windy it might be!

Date:

Astronomy

Feb. 02, 2013 Rise Set
Actual Time 7:40 AM CST 5:34 PM CST
Civil Twilight 7:09 AM CST 6:05 PM CST
Nautical Twilight 6:34 AM CST 6:40 PM CST
Astronomical Twilight 6:00 AM CST 7:14 PM CST
Moon No Moon Rise 10:33 AM CST (2/2)
Length of Visible Light 10h 55m
Length of Day
9h 54m
Waning Gibbous, 59% of the Moon is Illuminated
Feb 2
Waning Gibbous
Feb 3
Last Quarter
Feb 10
New
Feb 17
First Quarter
Feb 25
Full

Hourly Weather History & Observations

Time (CST) Temp. Windchill Dew Point Humidity Pressure Visibility Wind Dir Wind Speed Gust Speed Precip Events Conditions
12:15 AM 12.2 °F -4.3 °F 6.8 °F 79% 30.04 in 10.0 mi NNW 16.1 mph - N/A   Overcast
12:35 AM 12.2 °F -5.8 °F 5.0 °F 73% 30.05 in 10.0 mi NNW 19.6 mph - N/A   Scattered Clouds
12:55 AM 10.4 °F -7.2 °F 5.0 °F 79% 30.06 in 10.0 mi NNW 17.3 mph - N/A   Clear
1:15 AM 10.4 °F -5.4 °F 3.2 °F 73% 30.07 in 10.0 mi NNW 13.8 mph - N/A   Clear
1:35 AM 10.4 °F -5.4 °F 3.2 °F 73% 30.07 in 10.0 mi NNW 13.8 mph 19.6 mph N/A   Clear
1:55 AM 8.6 °F -6.3 °F 3.2 °F 79% 30.07 in 10.0 mi NW 11.5 mph - N/A   Partly Cloudy
2:15 AM 8.6 °F -5.5 °F 1.4 °F 73% 30.08 in 10.0 mi NW 10.4 mph - N/A   Partly Cloudy
2:35 AM 8.6 °F -6.3 °F 1.4 °F 73% 30.09 in 10.0 mi NW 11.5 mph - N/A   Clear
3:15 AM 6.8 °F -8.6 °F 1.4 °F 79% 30.09 in 10.0 mi NW 11.5 mph - N/A   Clear
3:35 AM 6.8 °F -8.6 °F 1.4 °F 79% 30.09 in 10.0 mi NW 11.5 mph - N/A   Clear
3:55 AM 6.8 °F -6.9 °F 1.4 °F 79% 30.10 in 10.0 mi NNW 9.2 mph - N/A   Clear
4:15 AM 5.0 °F -9.1 °F -0.4 °F 78% 30.11 in 10.0 mi NNW 9.2 mph - N/A   Clear
4:35 AM 5.0 °F -9.1 °F -0.4 °F 78% 30.12 in 10.0 mi NNW 9.2 mph - N/A   Mostly Cloudy
4:55 AM 5.0 °F -10.0 °F -0.4 °F 78% 30.12 in 10.0 mi NNW 10.4 mph - N/A   Overcast
5:15 AM 5.0 °F -9.1 °F -0.4 °F 78% 30.13 in 10.0 mi NNW 9.2 mph - N/A   Overcast
5:35 AM 5.0 °F -8.1 °F -0.4 °F 78% 30.14 in 10.0 mi NNW 8.1 mph - N/A   Overcast
6:15 AM 5.0 °F -9.1 °F 1.4 °F 85% 30.14 in 10.0 mi NNW 9.2 mph - N/A   Overcast
6:35 AM 5.0 °F -6.9 °F -0.4 °F 78% 30.14 in 10.0 mi North 6.9 mph - N/A   Overcast
6:55 AM 3.2 °F -10.3 °F -0.4 °F 85% 30.14 in 10.0 mi NNW 8.1 mph - N/A   Overcast
7:15 AM 3.2 °F -6.2 °F 1.4 °F 92% 30.14 in 10.0 mi North 4.6 mph - N/A   Overcast
7:35 AM 3.2 °F -6.2 °F -0.4 °F 85% 30.14 in 10.0 mi NNE 4.6 mph - N/A   Overcast
7:55 AM 3.2 °F -4.2 °F -5.8 °F 66% 30.13 in 10.0 mi North 3.5 mph - N/A   Scattered Clouds
8:15 AM 3.2 °F -4.2 °F -2.2 °F 78% 30.13 in 10.0 mi NNE 3.5 mph - N/A   Clear
8:35 AM 5.0 °F - -0.4 °F 78% 30.14 in 10.0 mi Calm Calm - N/A   Mostly Cloudy
8:55 AM 3.2 °F - -0.4 °F 85% 30.15 in 10.0 mi Calm Calm - N/A   Scattered Clouds
9:15 AM 5.0 °F - -2.2 °F 72% 30.15 in 10.0 mi Calm Calm - N/A   Clear
9:35 AM 5.0 °F - -0.4 °F 78% 30.14 in 10.0 mi Calm Calm - N/A   Partly Cloudy
9:55 AM 6.8 °F - -0.4 °F 72% 30.13 in 10.0 mi Calm Calm - N/A   Scattered Clouds
10:15 AM 6.8 °F -0.1 °F -2.2 °F 67% 30.14 in 10.0 mi WSW 3.5 mph - N/A   Clear
10:35 AM 6.8 °F -2.0 °F -2.2 °F 67% 30.14 in 10.0 mi WSW 4.6 mph - N/A   Clear
10:55 AM 8.6 °F - -0.4 °F 67% 30.14 in 5.0 mi Calm Calm - N/A   Clear
11:15 AM 8.6 °F 0.1 °F -2.2 °F 62% 30.14 in 10.0 mi West 4.6 mph - N/A   Scattered Clouds
11:35 AM 8.6 °F - -0.4 °F 67% 30.13 in 6.0 mi Calm Calm - N/A   Mostly Cloudy
11:55 AM 10.4 °F - 1.4 °F 67% 30.12 in 4.0 mi Calm Calm - N/A   Scattered Clouds
12:15 PM 10.4 °F - 3.2 °F 73% 30.10 in 5.0 mi Calm Calm - N/A   Mostly Cloudy
12:35 PM 10.4 °F 0.8 °F 3.2 °F 73% 30.08 in 5.0 mi South 5.8 mph - N/A   Scattered Clouds
12:55 PM 10.4 °F -0.4 °F 3.2 °F 73% 30.07 in 10.0 mi SSE 6.9 mph - N/A   Mostly Cloudy
1:15 PM 12.2 °F 0.7 °F 5.0 °F 73% 30.05 in 10.0 mi South 8.1 mph - N/A   Overcast
1:35 PM 12.2 °F 0.7 °F 6.8 °F 79% 30.03 in 10.0 mi SSE 8.1 mph - N/A   Overcast
1:55 PM 15.8 °F 5.1 °F 8.6 °F 73% 30.02 in 10.0 mi SSE 8.1 mph - N/A   Overcast
2:15 PM 15.8 °F 6.1 °F 10.4 °F 79% 30.01 in 10.0 mi ESE 6.9 mph - N/A   Overcast
2:35 PM 17.6 °F 8.2 °F 10.4 °F 73% 30.00 in 10.0 mi SE 6.9 mph - N/A   Overcast
2:55 PM 19.4 °F 9.5 °F 12.2 °F 74% 29.99 in 6.0 mi South 8.1 mph - N/A   Overcast
3:15 PM 19.4 °F 7.9 °F 14.0 °F 80% 29.97 in 1.8 mi South 10.4 mph - N/A   Overcast
3:35 PM 19.4 °F 7.2 °F 15.8 °F 86% 29.95 in 1.0 mi South 11.5 mph - N/A   Overcast
3:55 PM 19.4 °F 6.6 °F 15.8 °F 86% 29.94 in 1.0 mi SSW 12.7 mph - N/A   Overcast
4:15 PM 19.4 °F 7.2 °F 17.6 °F 93% 29.94 in 1.2 mi South 11.5 mph - N/A   Overcast
4:35 PM 21.2 °F 10.1 °F 15.8 °F 80% 29.92 in 8.0 mi South 10.4 mph - N/A   Overcast
4:55 PM 21.2 °F 11.7 °F 17.6 °F 86% 29.92 in 10.0 mi SSW 8.1 mph - N/A   Overcast
5:15 PM 23.0 °F 14.7 °F 17.6 °F 80% 29.91 in 10.0 mi WSW 6.9 mph - N/A   Overcast
5:35 PM 23.0 °F 11.1 °F 17.6 °F 80% 29.90 in 7.0 mi WSW 12.7 mph - N/A   Overcast
5:55 PM 24.8 °F 15.3 °F 19.4 °F 80% 29.90 in 5.0 mi West 9.2 mph - N/A   Overcast
6:15 PM 26.6 °F 14.7 °F 21.2 °F 80% 29.89 in 9.0 mi West 15.0 mph 23.0 mph N/A   Overcast
6:35 PM 28.4 °F 15.4 °F 23.0 °F 80% 29.89 in 5.0 mi WNW 19.6 mph 29.9 mph N/A   Overcast
6:55 PM 30.2 °F 17.4 °F 24.8 °F 80% 29.90 in 9.0 mi WNW 20.7 mph 26.5 mph N/A   Overcast
7:15 PM 30.2 °F 16.8 °F 24.8 °F 80% 29.90 in 10.0 mi WNW 23.0 mph 31.1 mph N/A   Overcast
7:35 PM 30.2 °F 15.9 °F 24.8 °F 80% 29.91 in 7.0 mi NW 26.5 mph 33.4 mph N/A   Overcast
7:55 PM 28.4 °F 14.4 °F 23.0 °F 80% 29.93 in 5.0 mi NNW 23.0 mph 33.4 mph N/A   Overcast
8:15 PM 26.6 °F 12.7 °F 19.4 °F 74% 29.95 in 7.0 mi NNW 20.7 mph - N/A   Overcast
8:35 PM 24.8 °F 9.3 °F 17.6 °F 74% 29.96 in 4.0 mi NNW 24.2 mph 33.4 mph N/A   Overcast
8:55 PM 21.2 °F 4.9 °F 15.8 °F 80% 29.98 in 3.0 mi NNW 23.0 mph 34.5 mph N/A   Overcast
9:15 PM 21.2 °F 4.2 °F 15.8 °F 80% 29.99 in 3.0 mi NNW 25.3 mph 35.7 mph N/A   Overcast
9:35 PM 19.4 °F 2.1 °F 14.0 °F 80% 30.00 in 5.0 mi NNW 24.2 mph 28.8 mph N/A   Overcast
9:55 PM 19.4 °F 3.2 °F 12.2 °F 74% 30.01 in 8.0 mi NNW 20.7 mph - N/A   Overcast
10:15 PM 17.6 °F 1.3 °F 12.2 °F 79% 30.02 in 10.0 mi NNW 19.6 mph 24.2 mph N/A   Overcast
10:35 PM 17.6 °F 2.2 °F 12.2 °F 79% 30.03 in 10.0 mi NNW 17.3 mph - N/A   Overcast
10:55 PM 19.4 °F 3.2 °F 12.2 °F 74% 30.02 in 10.0 mi NNW 20.7 mph 25.3 mph N/A   Overcast
11:15 PM 17.6 °F 0.5 °F 10.4 °F 73% 30.02 in 10.0 mi NNW 21.9 mph 25.3 mph N/A   Overcast
11:35 PM 17.6 °F -1.0 °F 10.4 °F 73% 30.03 in 8.0 mi NW 26.5 mph 29.9 mph N/A   Overcast
11:55 PM 17.6 °F -0.3 °F 10.4 °F 73% 30.05 in 10.0 mi NNW 24.2 mph 29.9 mph N/A   Overcast